owner,sensor,date,latitude,longitude,vertical_datum,sea_water_practical_salinity,qcFlag 
DISL,ioos:station:DISL:CATA:1,2011-06-01T00:00:00Z,30.3085,-88.1395,1.935,12.49,1111122 
DISL,ioos:station:DISL:CATA:1,2011-06-01T00:30:00Z,30.3085,-88.1395,1.926,12.91,1111122 
DISL,ioos:station:DISL:CATA:1,2011-06-01T01:00:00Z,30.3085,-88.1395,1.922,12.89,1111122 
DISL,ioos:station:DISL:CATA:1,2011-06-01T01:30:00Z,30.3085,-88.1395,1.91,12.45,1111122 
DISL,ioos:station:DISL:CATA:1,2011-06-01T02:00:00Z,30.3085,-88.1395,1.897,13.05,1111122 
DISL,ioos:station:DISL:CATA:1,2011-06-01T02:30:00Z,30.3085,-88.1395,1.893,13.15,1111122 
DISL,ioos:station:DISL:CATA:1,2011-06-01T03:00:00Z,30.3085,-88.1395,1.904,13.46,1111122 
DISL,ioos:station:DISL:CATA:1,2011-06-01T03:30:00Z,30.3085,-88.1395,1.915,13.72,1111122 
DISL,ioos:station:DISL:CATA:1,2011-06-01T04:00:00Z,30.3085,-88.1395,1.933,13.16,1111122 
DISL,ioos:station:DISL:CATA:1,2011-06-01T04:30:00Z,30.3085,-88.1395,1.96,13.81,1111122 
DISL,ioos:station:DISL:CATA:1,2011-06-01T05:00:00Z,30.3085,-88.1395,1.977,13.02,1111122 
DISL,ioos:station:DISL:CATA:1,2011-06-01T05:30:00Z,30.3085,-88.1395,1.994,12.48,1111122 
DISL,ioos:station:DISL:CATA:1,2011-06-01T06:00:00Z,30.3085,-88.1395,2.004,13.3,1111122 
DISL,ioos:station:DISL:CATA:1,2011-06-01T06:30:00Z,30.3085,-88.1395,2.025,13.21,1111122 
DISL,ioos:station:DISL:CATA:1,2011-06-01T07:00:00Z,30.3085,-88.1395,2.043,13.1,1111122 
DISL,ioos:station:DISL:CATA:1,2011-06-01T07:30:00Z,30.3085,-88.1395,2.065,13.02,1111122 
DISL,ioos:station:DISL:CATA:1,2011-06-01T08:00:00Z,30.3085,-88.1395,2.093,13.07,1111122 
DISL,ioos:station:DISL:CATA:1,2011-06-01T08:30:00Z,30.3085,-88.1395,2.119,13.24,1111122 
DISL,ioos:station:DISL:CATA:1,2011-06-01T09:00:00Z,30.3085,-88.1395,2.141,13.18,1111122 
DISL,ioos:station:DISL:CATA:1,2011-06-01T09:30:00Z,30.3085,-88.1395,2.166,13.64,1111122 
DISL,ioos:station:DISL:CATA:1,2011-06-01T10:00:00Z,30.3085,-88.1395,2.196,13.93,1111122 
DISL,ioos:station:DISL:CATA:1,2011-06-01T10:30:00Z,30.3085,-88.1395,2.225,14.11,1111122 
DISL,ioos:station:DISL:CATA:1,2011-06-01T11:00:00Z,30.3085,-88.1395,2.259,14.05,1111122 
DISL,ioos:station:DISL:CATA:1,2011-06-01T11:30:00Z,30.3085,-88.1395,2.288,14.24,1111122 
DISL,ioos:station:DISL:CATA:1,2011-06-01T12:00:00Z,30.3085,-88.1395,2.321,14.58,1111122 
DISL,ioos:station:DISL:CATA:1,2011-06-01T12:30:00Z,30.3085,-88.1395,2.347,14.96,1111122 
DISL,ioos:station:DISL:CATA:1,2011-06-01T13:00:00Z,30.3085,-88.1395,2.38,15.09,1111122 
DISL,ioos:station:DISL:CATA:1,2011-06-01T13:30:00Z,30.3085,-88.1395,2.394,15.29,1111122 
DISL,ioos:station:DISL:CATA:1,2011-06-01T14:00:00Z,30.3085,-88.1395,2.421,15.31,1111122 
DISL,ioos:station:DISL:CATA:1,2011-06-01T14:30:00Z,30.3085,-88.1395,2.433,14.59,1111122 
DISL,ioos:station:DISL:CATA:1,2011-06-01T15:00:00Z,30.3085,-88.1395,2.417,15.25,1111122 
DISL,ioos:station:DISL:CATA:1,2011-06-01T15:30:00Z,30.3085,-88.1395,2.411,15.69,1111122 
DISL,ioos:station:DISL:CATA:1,2011-06-01T16:00:00Z,30.3085,-88.1395,2.405,14.96,1111122 
DISL,ioos:station:DISL:CATA:1,2011-06-01T16:30:00Z,30.3085,-88.1395,2.393,15.66,1111122 
DISL,ioos:station:DISL:CATA:1,2011-06-01T17:00:00Z,30.3085,-88.1395,2.366,15.74,1111122 
DISL,ioos:station:DISL:CATA:1,2011-06-01T17:30:00Z,30.3085,-88.1395,2.341,16.0,1111122 
DISL,ioos:station:DISL:CATA:1,2011-06-01T18:00:00Z,30.3085,-88.1395,2.315,15.34,1111122 
DISL,ioos:station:DISL:CATA:1,2011-06-01T18:30:00Z,30.3085,-88.1395,2.284,15.26,1111122 
DISL,ioos:station:DISL:CATA:1,2011-06-01T19:00:00Z,30.3085,-88.1395,2.27,13.55,1111122 
DISL,ioos:station:DISL:CATA:1,2011-06-01T19:30:00Z,30.3085,-88.1395,2.238,13.53,1111122 
DISL,ioos:station:DISL:CATA:1,2011-06-01T20:00:00Z,30.3085,-88.1395,2.205,13.73,1111122 
DISL,ioos:station:DISL:CATA:1,2011-06-01T20:30:00Z,30.3085,-88.1395,2.165,13.81,1111122 
DISL,ioos:station:DISL:CATA:1,2011-06-01T21:00:00Z,30.3085,-88.1395,2.11,14.05,1111122 
DISL,ioos:station:DISL:CATA:1,2011-06-01T21:30:00Z,30.3085,-88.1395,2.069,14.89,1111122 
DISL,ioos:station:DISL:CATA:1,2011-06-01T22:00:00Z,30.3085,-88.1395,2.03,14.17,1111122 
DISL,ioos:station:DISL:CATA:1,2011-06-01T22:30:00Z,30.3085,-88.1395,1.997,14.09,1111122 
DISL,ioos:station:DISL:CATA:1,2011-06-01T23:00:00Z,30.3085,-88.1395,1.97,13.84,1111122 
DISL,ioos:station:DISL:CATA:1,2011-06-01T23:30:00Z,30.3085,-88.1395,1.938,14.18,1111122 
DISL,ioos:station:DISL:CATA:1,2011-06-02T00:00:00Z,30.3085,-88.1395,1.902,13.84,1111122 
DISL,ioos:station:DISL:CATA:1,2011-06-02T00:30:00Z,30.3085,-88.1395,1.874,14.13,1111122 
DISL,ioos:station:DISL:CATA:1,2011-06-02T01:00:00Z,30.3085,-88.1395,1.851,13.6,1111122 
DISL,ioos:station:DISL:CATA:1,2011-06-02T01:30:00Z,30.3085,-88.1395,1.842,13.48,1111122 
DISL,ioos:station:DISL:CATA:1,2011-06-02T02:00:00Z,30.3085,-88.1395,1.846,13.37,1111122 
DISL,ioos:station:DISL:CATA:1,2011-06-02T02:30:00Z,30.3085,-88.1395,1.837,13.31,1111122 
DISL,ioos:station:DISL:CATA:1,2011-06-02T03:00:00Z,30.3085,-88.1395,1.842,13.16,1111122 
DISL,ioos:station:DISL:CATA:1,2011-06-02T03:30:00Z,30.3085,-88.1395,1.838,13.34,1111122 
DISL,ioos:station:DISL:CATA:1,2011-06-02T04:00:00Z,30.3085,-88.1395,1.845,13.25,1111122 
DISL,ioos:station:DISL:CATA:1,2011-06-02T04:30:00Z,30.3085,-88.1395,1.854,13.57,1111122 
DISL,ioos:station:DISL:CATA:1,2011-06-02T05:00:00Z,30.3085,-88.1395,1.875,13.35,1111122 
DISL,ioos:station:DISL:CATA:1,2011-06-02T05:30:00Z,30.3085,-88.1395,1.927,13.38,1111122 
DISL,ioos:station:DISL:CATA:1,2011-06-02T06:00:00Z,30.3085,-88.1395,1.922,13.51,1111122 
DISL,ioos:station:DISL:CATA:1,2011-06-02T06:30:00Z,30.3085,-88.1395,1.949,12.67,1111122 
DISL,ioos:station:DISL:CATA:1,2011-06-02T07:00:00Z,30.3085,-88.1395,1.985,13.12,1111122 
DISL,ioos:station:DISL:CATA:1,2011-06-02T07:30:00Z,30.3085,-88.1395,2.023,12.92,1111122 
DISL,ioos:station:DISL:CATA:1,2011-06-02T08:00:00Z,30.3085,-88.1395,2.012,13.55,1111122 
DISL,ioos:station:DISL:CATA:1,2011-06-02T08:30:00Z,30.3085,-88.1395,2.076,13.89,1111122 
DISL,ioos:station:DISL:CATA:1,2011-06-02T09:00:00Z,30.3085,-88.1395,2.097,13.74,1111122 
DISL,ioos:station:DISL:CATA:1,2011-06-02T09:30:00Z,30.3085,-88.1395,2.117,13.52,1111122 
DISL,ioos:station:DISL:CATA:1,2011-06-02T10:00:00Z,30.3085,-88.1395,2.112,13.14,1111122 
DISL,ioos:station:DISL:CATA:1,2011-06-02T10:30:00Z,30.3085,-88.1395,2.138,12.81,1111122 
DISL,ioos:station:DISL:CATA:1,2011-06-02T11:00:00Z,30.3085,-88.1395,2.159,12.97,1111122 
DISL,ioos:station:DISL:CATA:1,2011-06-02T11:30:00Z,30.3085,-88.1395,2.212,13.18,1111122 
DISL,ioos:station:DISL:CATA:1,2011-06-02T12:00:00Z,30.3085,-88.1395,2.264,13.17,1111122 
DISL,ioos:station:DISL:CATA:1,2011-06-02T12:30:00Z,30.3085,-88.1395,2.328,13.49,1111122 
DISL,ioos:station:DISL:CATA:1,2011-06-02T13:00:00Z,30.3085,-88.1395,2.38,14.14,1111122 
DISL,ioos:station:DISL:CATA:1,2011-06-02T13:30:00Z,30.3085,-88.1395,2.418,14.33,1111122 
DISL,ioos:station:DISL:CATA:1,2011-06-02T14:00:00Z,30.3085,-88.1395,2.438,14.75,1111122 
DISL,ioos:station:DISL:CATA:1,2011-06-02T14:30:00Z,30.3085,-88.1395,2.464,14.85,1111122 
DISL,ioos:station:DISL:CATA:1,2011-06-02T15:00:00Z,30.3085,-88.1395,2.479,15.19,1111122 
DISL,ioos:station:DISL:CATA:1,2011-06-02T15:30:00Z,30.3085,-88.1395,2.481,15.32,1111122 
DISL,ioos:station:DISL:CATA:1,2011-06-02T16:00:00Z,30.3085,-88.1395,2.486,15.44,1111122 
DISL,ioos:station:DISL:CATA:1,2011-06-02T16:30:00Z,30.3085,-88.1395,2.475,15.89,1111122 
DISL,ioos:station:DISL:CATA:1,2011-06-02T17:00:00Z,30.3085,-88.1395,2.458,16.17,1111122 
DISL,ioos:station:DISL:CATA:1,2011-06-02T17:30:00Z,30.3085,-88.1395,2.436,16.18,1111122 
DISL,ioos:station:DISL:CATA:1,2011-06-02T18:00:00Z,30.3085,-88.1395,2.412,16.0,1111122 
DISL,ioos:station:DISL:CATA:1,2011-06-02T18:30:00Z,30.3085,-88.1395,2.387,16.29,1111122 
DISL,ioos:station:DISL:CATA:1,2011-06-02T19:00:00Z,30.3085,-88.1395,2.344,16.54,1111122 
DISL,ioos:station:DISL:CATA:1,2011-06-02T19:30:00Z,30.3085,-88.1395,2.314,14.8,1111122 
DISL,ioos:station:DISL:CATA:1,2011-06-02T20:00:00Z,30.3085,-88.1395,2.281,14.37,1111122 
DISL,ioos:station:DISL:CATA:1,2011-06-02T20:30:00Z,30.3085,-88.1395,2.243,14.68,1111122 
DISL,ioos:station:DISL:CATA:1,2011-06-02T21:00:00Z,30.3085,-88.1395,2.208,14.86,1111122 
DISL,ioos:station:DISL:CATA:1,2011-06-02T21:30:00Z,30.3085,-88.1395,2.163,14.86,1111122 
DISL,ioos:station:DISL:CATA:1,2011-06-02T22:00:00Z,30.3085,-88.1395,2.122,14.89,1111122 
DISL,ioos:station:DISL:CATA:1,2011-06-02T22:30:00Z,30.3085,-88.1395,2.081,15.03,1111122 
DISL,ioos:station:DISL:CATA:1,2011-06-02T23:00:00Z,30.3085,-88.1395,2.051,15.08,1111122 
DISL,ioos:station:DISL:CATA:1,2011-06-02T23:30:00Z,30.3085,-88.1395,2.012,14.91,1111122 
DISL,ioos:station:DISL:CATA:1,2011-06-03T00:00:00Z,30.3085,-88.1395,1.984,14.89,1111122 
DISL,ioos:station:DISL:CATA:1,2011-06-03T00:30:00Z,30.3085,-88.1395,1.966,14.88,1111122 
DISL,ioos:station:DISL:CATA:1,2011-06-03T01:00:00Z,30.3085,-88.1395,1.945,14.81,1111122 
DISL,ioos:station:DISL:CATA:1,2011-06-03T01:30:00Z,30.3085,-88.1395,1.937,14.72,1111122 
DISL,ioos:station:DISL:CATA:1,2011-06-03T02:00:00Z,30.3085,-88.1395,1.933,14.68,1111122 
DISL,ioos:station:DISL:CATA:1,2011-06-03T02:30:00Z,30.3085,-88.1395,1.931,14.6,1111122 
DISL,ioos:station:DISL:CATA:1,2011-06-03T03:00:00Z,30.3085,-88.1395,1.936,14.55,1111122 
DISL,ioos:station:DISL:CATA:1,2011-06-03T03:30:00Z,30.3085,-88.1395,1.943,14.54,1111122 
DISL,ioos:station:DISL:CATA:1,2011-06-03T04:00:00Z,30.3085,-88.1395,1.953,14.51,1111122 
DISL,ioos:station:DISL:CATA:1,2011-06-03T04:30:00Z,30.3085,-88.1395,1.955,14.48,1111122 
DISL,ioos:station:DISL:CATA:1,2011-06-03T05:00:00Z,30.3085,-88.1395,1.966,14.48,1111122 
DISL,ioos:station:DISL:CATA:1,2011-06-03T05:30:00Z,30.3085,-88.1395,1.984,14.49,1111122 
DISL,ioos:station:DISL:CATA:1,2011-06-03T06:00:00Z,30.3085,-88.1395,1.98,14.51,1111122 
DISL,ioos:station:DISL:CATA:1,2011-06-03T06:30:00Z,30.3085,-88.1395,1.995,14.55,1111122 
DISL,ioos:station:DISL:CATA:1,2011-06-03T07:00:00Z,30.3085,-88.1395,2.016,14.54,1111122 
DISL,ioos:station:DISL:CATA:1,2011-06-03T07:30:00Z,30.3085,-88.1395,2.046,14.55,1111122 
DISL,ioos:station:DISL:CATA:1,2011-06-03T08:00:00Z,30.3085,-88.1395,2.069,14.58,1111122 
DISL,ioos:station:DISL:CATA:1,2011-06-03T08:30:00Z,30.3085,-88.1395,2.087,14.64,1111122 
DISL,ioos:station:DISL:CATA:1,2011-06-03T09:00:00Z,30.3085,-88.1395,2.116,14.71,1111122 
DISL,ioos:station:DISL:CATA:1,2011-06-03T09:30:00Z,30.3085,-88.1395,2.149,14.77,1111122 
DISL,ioos:station:DISL:CATA:1,2011-06-03T10:00:00Z,30.3085,-88.1395,2.173,14.85,1111122 
DISL,ioos:station:DISL:CATA:1,2011-06-03T10:30:00Z,30.3085,-88.1395,2.197,14.93,1111122 
DISL,ioos:station:DISL:CATA:1,2011-06-03T11:00:00Z,30.3085,-88.1395,2.225,15.01,1111122 
DISL,ioos:station:DISL:CATA:1,2011-06-03T11:30:00Z,30.3085,-88.1395,2.255,15.09,1111122 
DISL,ioos:station:DISL:CATA:1,2011-06-03T12:00:00Z,30.3085,-88.1395,2.281,15.13,1111122 
DISL,ioos:station:DISL:CATA:1,2011-06-03T12:30:00Z,30.3085,-88.1395,2.317,15.17,1111122 
DISL,ioos:station:DISL:CATA:1,2011-06-03T13:00:00Z,30.3085,-88.1395,2.352,15.21,1111122 
DISL,ioos:station:DISL:CATA:1,2011-06-03T13:30:00Z,30.3085,-88.1395,2.379,15.3,1111122 
DISL,ioos:station:DISL:CATA:1,2011-06-03T14:00:00Z,30.3085,-88.1395,2.409,15.27,1111122 
DISL,ioos:station:DISL:CATA:1,2011-06-03T14:30:00Z,30.3085,-88.1395,2.432,15.23,1111122 
DISL,ioos:station:DISL:CATA:1,2011-06-03T15:00:00Z,30.3085,-88.1395,2.455,15.34,1111122 
DISL,ioos:station:DISL:CATA:1,2011-06-03T15:30:00Z,30.3085,-88.1395,2.471,15.46,1111122 
DISL,ioos:station:DISL:CATA:1,2011-06-03T16:00:00Z,30.3085,-88.1395,2.49,15.51,1111122 
DISL,ioos:station:DISL:CATA:1,2011-06-03T16:30:00Z,30.3085,-88.1395,2.496,15.76,1111122 
DISL,ioos:station:DISL:CATA:1,2011-06-03T17:00:00Z,30.3085,-88.1395,2.484,16.42,1111122 
DISL,ioos:station:DISL:CATA:1,2011-06-03T17:30:00Z,30.3085,-88.1395,2.471,16.51,1111122 
DISL,ioos:station:DISL:CATA:1,2011-06-03T18:00:00Z,30.3085,-88.1395,2.453,16.62,1111122 
DISL,ioos:station:DISL:CATA:1,2011-06-03T18:30:00Z,30.3085,-88.1395,2.435,17.01,1111122 
DISL,ioos:station:DISL:CATA:1,2011-06-03T19:00:00Z,30.3085,-88.1395,2.41,17.6,1111122 
DISL,ioos:station:DISL:CATA:1,2011-06-03T19:30:00Z,30.3085,-88.1395,2.384,17.66,1111122 
DISL,ioos:station:DISL:CATA:1,2011-06-03T20:00:00Z,30.3085,-88.1395,2.349,17.64,1111122 
DISL,ioos:station:DISL:CATA:1,2011-06-03T20:30:00Z,30.3085,-88.1395,2.317,17.65,1111122 
DISL,ioos:station:DISL:CATA:1,2011-06-03T21:00:00Z,30.3085,-88.1395,2.263,17.26,1111122 
DISL,ioos:station:DISL:CATA:1,2011-06-03T21:30:00Z,30.3085,-88.1395,2.238,16.16,1111122 
DISL,ioos:station:DISL:CATA:1,2011-06-03T22:00:00Z,30.3085,-88.1395,2.192,15.15,1111122 
DISL,ioos:station:DISL:CATA:1,2011-06-03T22:30:00Z,30.3085,-88.1395,2.154,15.09,1111122 
DISL,ioos:station:DISL:CATA:1,2011-06-03T23:00:00Z,30.3085,-88.1395,2.128,15.18,1111122 
DISL,ioos:station:DISL:CATA:1,2011-06-03T23:30:00Z,30.3085,-88.1395,2.092,15.26,1111122 
DISL,ioos:station:DISL:CATA:1,2011-06-04T00:00:00Z,30.3085,-88.1395,2.057,15.37,1111122 
DISL,ioos:station:DISL:CATA:1,2011-06-04T00:30:00Z,30.3085,-88.1395,2.025,15.45,1111122 
DISL,ioos:station:DISL:CATA:1,2011-06-04T01:00:00Z,30.3085,-88.1395,2.002,15.5,1111122 
DISL,ioos:station:DISL:CATA:1,2011-06-04T01:30:00Z,30.3085,-88.1395,1.984,15.57,1111122 
DISL,ioos:station:DISL:CATA:1,2011-06-04T02:00:00Z,30.3085,-88.1395,1.953,15.59,1111122 
DISL,ioos:station:DISL:CATA:1,2011-06-04T02:30:00Z,30.3085,-88.1395,1.928,15.64,1111122 
DISL,ioos:station:DISL:CATA:1,2011-06-04T03:00:00Z,30.3085,-88.1395,1.913,16.1,1111122 
DISL,ioos:station:DISL:CATA:1,2011-06-04T03:30:00Z,30.3085,-88.1395,1.938,16.44,1111122 
DISL,ioos:station:DISL:CATA:1,2011-06-04T04:00:00Z,30.3085,-88.1395,1.93,16.47,1111122 
DISL,ioos:station:DISL:CATA:1,2011-06-04T04:30:00Z,30.3085,-88.1395,1.919,17.13,1111122 
DISL,ioos:station:DISL:CATA:1,2011-06-04T05:00:00Z,30.3085,-88.1395,1.917,16.97,1111122 
DISL,ioos:station:DISL:CATA:1,2011-06-04T05:30:00Z,30.3085,-88.1395,1.917,16.93,1111122 
DISL,ioos:station:DISL:CATA:1,2011-06-04T06:00:00Z,30.3085,-88.1395,1.95,16.7,1111122 
DISL,ioos:station:DISL:CATA:1,2011-06-04T06:30:00Z,30.3085,-88.1395,1.958,16.22,1111122 
DISL,ioos:station:DISL:CATA:1,2011-06-04T07:00:00Z,30.3085,-88.1395,1.985,16.2,1111122 
DISL,ioos:station:DISL:CATA:1,2011-06-04T07:30:00Z,30.3085,-88.1395,1.986,16.15,1111122 
DISL,ioos:station:DISL:CATA:1,2011-06-04T08:00:00Z,30.3085,-88.1395,2.009,15.97,1111122 
DISL,ioos:station:DISL:CATA:1,2011-06-04T08:30:00Z,30.3085,-88.1395,2.025,15.84,1111122 
DISL,ioos:station:DISL:CATA:1,2011-06-04T09:00:00Z,30.3085,-88.1395,2.063,15.63,1111122 
DISL,ioos:station:DISL:CATA:1,2011-06-04T09:30:00Z,30.3085,-88.1395,2.097,15.51,1111122 
DISL,ioos:station:DISL:CATA:1,2011-06-04T10:00:00Z,30.3085,-88.1395,2.114,15.11,1111122 
DISL,ioos:station:DISL:CATA:1,2011-06-04T10:30:00Z,30.3085,-88.1395,2.139,15.23,1111122 
DISL,ioos:station:DISL:CATA:1,2011-06-04T11:00:00Z,30.3085,-88.1395,2.17,15.93,1111122 
DISL,ioos:station:DISL:CATA:1,2011-06-04T11:30:00Z,30.3085,-88.1395,2.189,16.44,1111122 
DISL,ioos:station:DISL:CATA:1,2011-06-04T12:00:00Z,30.3085,-88.1395,2.209,16.73,1111122 
DISL,ioos:station:DISL:CATA:1,2011-06-04T12:30:00Z,30.3085,-88.1395,2.242,16.94,1111122 
DISL,ioos:station:DISL:CATA:1,2011-06-04T13:00:00Z,30.3085,-88.1395,2.278,16.74,1111122 
DISL,ioos:station:DISL:CATA:1,2011-06-04T13:30:00Z,30.3085,-88.1395,2.305,16.91,1111122 
DISL,ioos:station:DISL:CATA:1,2011-06-04T14:00:00Z,30.3085,-88.1395,2.332,17.57,1111122 
DISL,ioos:station:DISL:CATA:1,2011-06-04T14:30:00Z,30.3085,-88.1395,2.368,17.86,1111122 
DISL,ioos:station:DISL:CATA:1,2011-06-04T15:00:00Z,30.3085,-88.1395,2.41,18.35,1111122 
DISL,ioos:station:DISL:CATA:1,2011-06-04T15:30:00Z,30.3085,-88.1395,2.433,18.53,1111122 
DISL,ioos:station:DISL:CATA:1,2011-06-04T16:00:00Z,30.3085,-88.1395,2.444,18.51,1111122 
DISL,ioos:station:DISL:CATA:1,2011-06-04T16:30:00Z,30.3085,-88.1395,2.46,18.61,1111122 
DISL,ioos:station:DISL:CATA:1,2011-06-04T17:00:00Z,30.3085,-88.1395,2.461,18.58,1111122 
DISL,ioos:station:DISL:CATA:1,2011-06-04T17:30:00Z,30.3085,-88.1395,2.448,18.52,1111122 
DISL,ioos:station:DISL:CATA:1,2011-06-04T18:00:00Z,30.3085,-88.1395,2.436,18.49,1111122 
DISL,ioos:station:DISL:CATA:1,2011-06-04T18:30:00Z,30.3085,-88.1395,2.425,18.46,1111122 
DISL,ioos:station:DISL:CATA:1,2011-06-04T19:00:00Z,30.3085,-88.1395,2.417,18.42,1111122 
DISL,ioos:station:DISL:CATA:1,2011-06-04T19:30:00Z,30.3085,-88.1395,2.411,18.39,1111122 
DISL,ioos:station:DISL:CATA:1,2011-06-04T20:00:00Z,30.3085,-88.1395,2.403,18.38,1111122 
DISL,ioos:station:DISL:CATA:1,2011-06-04T20:30:00Z,30.3085,-88.1395,2.387,18.41,1111122 
DISL,ioos:station:DISL:CATA:1,2011-06-04T21:00:00Z,30.3085,-88.1395,2.359,18.4,1111122 
DISL,ioos:station:DISL:CATA:1,2011-06-04T21:30:00Z,30.3085,-88.1395,2.333,18.42,1111122 
DISL,ioos:station:DISL:CATA:1,2011-06-04T22:00:00Z,30.3085,-88.1395,2.288,18.42,1111122 
DISL,ioos:station:DISL:CATA:1,2011-06-04T22:30:00Z,30.3085,-88.1395,2.258,18.32,1111122 
DISL,ioos:station:DISL:CATA:1,2011-06-04T23:00:00Z,30.3085,-88.1395,2.209,18.09,1111122 
DISL,ioos:station:DISL:CATA:1,2011-06-04T23:30:00Z,30.3085,-88.1395,2.162,16.93,1111122 
DISL,ioos:station:DISL:CATA:1,2011-06-05T00:00:00Z,30.3085,-88.1395,2.119,17.21,1111122 
DISL,ioos:station:DISL:CATA:1,2011-06-05T00:30:00Z,30.3085,-88.1395,2.071,17.05,1111122 
DISL,ioos:station:DISL:CATA:1,2011-06-05T01:00:00Z,30.3085,-88.1395,2.034,16.92,1111122 
DISL,ioos:station:DISL:CATA:1,2011-06-05T01:30:00Z,30.3085,-88.1395,1.984,16.79,1111122 
DISL,ioos:station:DISL:CATA:1,2011-06-05T02:00:00Z,30.3085,-88.1395,1.955,16.38,1111122 
DISL,ioos:station:DISL:CATA:1,2011-06-05T02:30:00Z,30.3085,-88.1395,1.925,16.0,1111122 
DISL,ioos:station:DISL:CATA:1,2011-06-05T03:00:00Z,30.3085,-88.1395,1.886,15.9,1111122 
DISL,ioos:station:DISL:CATA:1,2011-06-05T03:30:00Z,30.3085,-88.1395,1.867,15.78,1111122 
DISL,ioos:station:DISL:CATA:1,2011-06-05T04:00:00Z,30.3085,-88.1395,1.848,15.73,1111122 
DISL,ioos:station:DISL:CATA:1,2011-06-05T04:30:00Z,30.3085,-88.1395,1.836,15.6,1111122 
DISL,ioos:station:DISL:CATA:1,2011-06-05T05:00:00Z,30.3085,-88.1395,1.839,15.32,1111122 
DISL,ioos:station:DISL:CATA:1,2011-06-05T05:30:00Z,30.3085,-88.1395,1.862,14.87,1111122 
DISL,ioos:station:DISL:CATA:1,2011-06-05T06:00:00Z,30.3085,-88.1395,1.862,14.79,1111122 
DISL,ioos:station:DISL:CATA:1,2011-06-05T06:30:00Z,30.3085,-88.1395,1.86,14.67,1111122 
DISL,ioos:station:DISL:CATA:1,2011-06-05T07:00:00Z,30.3085,-88.1395,1.872,14.79,1111122 
DISL,ioos:station:DISL:CATA:1,2011-06-05T07:30:00Z,30.3085,-88.1395,1.923,14.69,1111122 
DISL,ioos:station:DISL:CATA:1,2011-06-05T08:00:00Z,30.3085,-88.1395,1.959,14.44,1111122 
DISL,ioos:station:DISL:CATA:1,2011-06-05T08:30:00Z,30.3085,-88.1395,1.983,14.2,1111122 
DISL,ioos:station:DISL:CATA:1,2011-06-05T09:00:00Z,30.3085,-88.1395,1.989,14.34,1111122 
DISL,ioos:station:DISL:CATA:1,2011-06-05T09:30:00Z,30.3085,-88.1395,2.019,14.45,1111122 
DISL,ioos:station:DISL:CATA:1,2011-06-05T10:00:00Z,30.3085,-88.1395,2.051,14.5,1111122 
DISL,ioos:station:DISL:CATA:1,2011-06-05T10:30:00Z,30.3085,-88.1395,2.081,14.64,1111122 
DISL,ioos:station:DISL:CATA:1,2011-06-05T11:00:00Z,30.3085,-88.1395,2.112,14.77,1111122 
DISL,ioos:station:DISL:CATA:1,2011-06-05T11:30:00Z,30.3085,-88.1395,2.143,15.07,1111122 
DISL,ioos:station:DISL:CATA:1,2011-06-05T12:00:00Z,30.3085,-88.1395,2.175,15.32,1111122 
DISL,ioos:station:DISL:CATA:1,2011-06-05T12:30:00Z,30.3085,-88.1395,2.2,15.47,1111122 
DISL,ioos:station:DISL:CATA:1,2011-06-05T13:00:00Z,30.3085,-88.1395,2.218,15.61,1111122 
DISL,ioos:station:DISL:CATA:1,2011-06-05T13:30:00Z,30.3085,-88.1395,2.229,15.79,1111122 
DISL,ioos:station:DISL:CATA:1,2011-06-05T14:00:00Z,30.3085,-88.1395,2.278,16.04,1111122 
DISL,ioos:station:DISL:CATA:1,2011-06-05T14:30:00Z,30.3085,-88.1395,2.303,16.35,1111122 
DISL,ioos:station:DISL:CATA:1,2011-06-05T15:00:00Z,30.3085,-88.1395,2.326,16.44,1111122 
DISL,ioos:station:DISL:CATA:1,2011-06-05T15:30:00Z,30.3085,-88.1395,2.354,16.73,1111122 
DISL,ioos:station:DISL:CATA:1,2011-06-05T16:00:00Z,30.3085,-88.1395,2.363,17.13,1111122 
DISL,ioos:station:DISL:CATA:1,2011-06-05T16:30:00Z,30.3085,-88.1395,2.382,17.55,1111122 
DISL,ioos:station:DISL:CATA:1,2011-06-05T17:00:00Z,30.3085,-88.1395,2.393,17.86,1111122 
DISL,ioos:station:DISL:CATA:1,2011-06-05T17:30:00Z,30.3085,-88.1395,2.405,17.96,1111122 
DISL,ioos:station:DISL:CATA:1,2011-06-05T18:00:00Z,30.3085,-88.1395,2.409,18.03,1111122 
DISL,ioos:station:DISL:CATA:1,2011-06-05T18:30:00Z,30.3085,-88.1395,2.409,18.08,1111122 
DISL,ioos:station:DISL:CATA:1,2011-06-05T19:00:00Z,30.3085,-88.1395,2.411,18.06,1111122 
DISL,ioos:station:DISL:CATA:1,2011-06-05T19:30:00Z,30.3085,-88.1395,2.392,18.04,1111122 
DISL,ioos:station:DISL:CATA:1,2011-06-05T20:00:00Z,30.3085,-88.1395,2.41,18.05,1111122 
DISL,ioos:station:DISL:CATA:1,2011-06-05T20:30:00Z,30.3085,-88.1395,2.375,17.51,1111122 
DISL,ioos:station:DISL:CATA:1,2011-06-05T21:00:00Z,30.3085,-88.1395,2.33,17.83,1111122 
DISL,ioos:station:DISL:CATA:1,2011-06-05T21:30:00Z,30.3085,-88.1395,2.291,17.81,1111122 
DISL,ioos:station:DISL:CATA:1,2011-06-05T22:00:00Z,30.3085,-88.1395,2.262,16.9,1111122 
DISL,ioos:station:DISL:CATA:1,2011-06-05T22:30:00Z,30.3085,-88.1395,2.234,16.37,1111122 
DISL,ioos:station:DISL:CATA:1,2011-06-05T23:00:00Z,30.3085,-88.1395,2.209,14.64,1111122 
DISL,ioos:station:DISL:CATA:1,2011-06-05T23:30:00Z,30.3085,-88.1395,2.168,14.31,1111122 
DISL,ioos:station:DISL:CATA:1,2011-06-06T00:00:00Z,30.3085,-88.1395,2.12,14.29,1111122 
DISL,ioos:station:DISL:CATA:1,2011-06-06T00:30:00Z,30.3085,-88.1395,2.096,14.24,1111122 
DISL,ioos:station:DISL:CATA:1,2011-06-06T01:00:00Z,30.3085,-88.1395,2.06,14.16,1111122 
DISL,ioos:station:DISL:CATA:1,2011-06-06T01:30:00Z,30.3085,-88.1395,2.024,13.97,1111122 
DISL,ioos:station:DISL:CATA:1,2011-06-06T02:00:00Z,30.3085,-88.1395,2.006,13.85,1111122 
DISL,ioos:station:DISL:CATA:1,2011-06-06T02:30:00Z,30.3085,-88.1395,1.988,13.67,1111122 
DISL,ioos:station:DISL:CATA:1,2011-06-06T03:00:00Z,30.3085,-88.1395,1.966,13.5,1111122 
DISL,ioos:station:DISL:CATA:1,2011-06-06T03:30:00Z,30.3085,-88.1395,1.962,13.26,1111122 
DISL,ioos:station:DISL:CATA:1,2011-06-06T04:00:00Z,30.3085,-88.1395,1.964,13.25,1111122 
DISL,ioos:station:DISL:CATA:1,2011-06-06T04:30:00Z,30.3085,-88.1395,1.969,13.16,1111122 
DISL,ioos:station:DISL:CATA:1,2011-06-06T05:00:00Z,30.3085,-88.1395,1.963,13.09,1111122 
DISL,ioos:station:DISL:CATA:1,2011-06-06T05:30:00Z,30.3085,-88.1395,1.967,13.07,1111122 
DISL,ioos:station:DISL:CATA:1,2011-06-06T06:00:00Z,30.3085,-88.1395,1.987,13.16,1111122 
DISL,ioos:station:DISL:CATA:1,2011-06-06T06:30:00Z,30.3085,-88.1395,1.981,13.24,1111122 
DISL,ioos:station:DISL:CATA:1,2011-06-06T07:00:00Z,30.3085,-88.1395,1.981,13.26,1111122 
DISL,ioos:station:DISL:CATA:1,2011-06-06T07:30:00Z,30.3085,-88.1395,2.001,13.29,1111122 
DISL,ioos:station:DISL:CATA:1,2011-06-06T08:00:00Z,30.3085,-88.1395,2.02,13.36,1111122 
DISL,ioos:station:DISL:CATA:1,2011-06-06T08:30:00Z,30.3085,-88.1395,2.028,13.48,1111122 
DISL,ioos:station:DISL:CATA:1,2011-06-06T09:00:00Z,30.3085,-88.1395,2.049,13.66,1111122 
DISL,ioos:station:DISL:CATA:1,2011-06-06T09:30:00Z,30.3085,-88.1395,2.075,14.16,1111122 
DISL,ioos:station:DISL:CATA:1,2011-06-06T10:00:00Z,30.3085,-88.1395,2.096,14.44,1111122 
DISL,ioos:station:DISL:CATA:1,2011-06-06T10:30:00Z,30.3085,-88.1395,2.114,14.59,1111122 
DISL,ioos:station:DISL:CATA:1,2011-06-06T11:00:00Z,30.3085,-88.1395,2.131,14.65,1111122 
DISL,ioos:station:DISL:CATA:1,2011-06-06T11:30:00Z,30.3085,-88.1395,2.15,15.03,1111122 
DISL,ioos:station:DISL:CATA:1,2011-06-06T12:00:00Z,30.3085,-88.1395,2.171,15.37,1111122 
DISL,ioos:station:DISL:CATA:1,2011-06-06T12:30:00Z,30.3085,-88.1395,2.185,15.38,1111122 
DISL,ioos:station:DISL:CATA:1,2011-06-06T13:00:00Z,30.3085,-88.1395,2.21,15.76,1111122 
DISL,ioos:station:DISL:CATA:1,2011-06-06T13:30:00Z,30.3085,-88.1395,2.242,16.2,1111122 
DISL,ioos:station:DISL:CATA:1,2011-06-06T14:00:00Z,30.3085,-88.1395,2.268,16.99,1111122 